Location: Guayaquil
(2.1667°S, 79.9000°W)
Time: 05:32:35
(UTC-05:00)

Tiangong - Visible Passes

Search period start: 01 October 2022 00:00
Search period end: 11 October 2022 00:00
Orbit: 381 x 385 km, 41.5° (Epoch: 30 September)

Date Brightness Start Highest point End Pass type
(mag) Time Alt. Az. Time Alt. Az. Time Alt. Az.
01 Oct -1.7 18:46:37 10° SW 18:49:44 62° NW 18:52:50 10° NE visible
03 Oct 0.7 05:18:36 10° N 05:20:26 14° NE 05:22:16 10° E visible
05 Oct -0.8 04:55:28 23° N 04:56:55 37° NE 04:59:52 10° ESE visible
06 Oct -0.7 05:31:15 12° W 05:33:27 24° SW 05:36:04 10° SSE visible
07 Oct -0.5 04:34:40 30° SSE 04:34:40 30° SSE 04:36:27 10° SE visible
